Watsonville, CA

11:56 PM PDT on May 25, 2017 (GMT -0700)
Watsonville Municipal

Weather History for KWVI - February, 2012

Change the Weather History Date:

Saturday, February 25, 2012

  Actual Average Record
Temperature  
Mean Temperature 53 °F 52 °F  
Max Temperature 64 °F 61 °F 76 °F (2016)
Min Temperature 41 °F 43 °F 33 °F (2017)
Degree Days  
Heating Degree Days 12    
Month to date heating degree days 251  
Since 1 July heating degree days 1739  
Cooling Degree Days 0    
Month to date cooling degree days 0  
Year to date cooling degree days 0  
Growing Degree Days 2 (Base 50)    
Moisture  
Dew Point 38 °F    
Average Humidity 60    
Maximum Humidity 83    
Minimum Humidity 36    
Precipitation  
Precipitation 0.00 in - 1.68 in (2004)
Month to date precipitation 0.60  
Year to date precipitation 3.29  
Since 1 July precipitation 7.58  
Sea Level Pressure  
Sea Level Pressure 30.24 in    
Wind  
Wind Speed 5 mph (WSW)    
Max Wind Speed 12 mph    
Max Gust Speed 24 mph    
Visibility 10 miles    
Events      
T = Trace of Precipitation, MM = Missing Value Source: NWS Daily Summary

Daily Weather History Graph

Daily Weather History Graph

Search for Another Location

Airport or City:

Trip Planner

Search our weather history database for the weather conditions in past years. The results will help you decide how hot, cold, wet, or windy it might be!

Date:

Astronomy

Feb. 25, 2012 Rise Set
Actual Time 6:43 AM PST 5:57 PM PST
Civil Twilight 6:17 AM PST 6:23 PM PST
Nautical Twilight 5:47 AM PST 6:53 PM PST
Astronomical Twilight 5:17 AM PST 7:23 PM PST
Moon 8:17 AM PST (2/25) 9:55 PM PST (2/25)
Length of Visible Light 12h 05m
Length of Day
11h 13m
Waxing Crescent, 14% of the Moon is Illuminated
Feb 25
Waxing Crescent
Feb 29
First Quarter
Mar 8
Full
Mar 14
Last Quarter
Mar 22
New

Hourly Weather History & Observations

Time (PST) Temp. Windchill Dew Point Humidity Pressure Visibility Wind Dir Wind Speed Gust Speed Precip Events Conditions
1:53 AM 46.0 °F 43.1 °F 39.9 °F 79% 30.25 in 10.0 mi NW 5.8 mph - N/A   Clear
2:53 AM 45.0 °F 42.6 °F 39.0 °F 80% 30.25 in 10.0 mi NNW 4.6 mph - N/A   Clear
4:53 AM 44.1 °F 42.5 °F 37.9 °F 79% 30.26 in 10.0 mi NW 3.5 mph - N/A   Clear
5:53 AM 42.1 °F - 37.0 °F 82% 30.26 in 10.0 mi Calm Calm - N/A   Clear
6:33 AM 42.8 °F 41.1 °F 37.4 °F 81% 30.27 in 10.0 mi North 3.5 mph - N/A   Mostly Cloudy
6:53 AM 43.0 °F - 37.0 °F 80% 30.27 in 10.0 mi Calm Calm - N/A   Scattered Clouds
7:53 AM 46.9 °F - 39.9 °F 77% 30.29 in 10.0 mi Calm Calm - N/A   Clear
8:53 AM 53.1 °F - 41.0 °F 64% 30.31 in 10.0 mi WSW 4.6 mph - N/A   Clear
9:53 AM 55.9 °F - 39.0 °F 53% 30.31 in 10.0 mi SSW 8.1 mph - N/A   Clear
10:53 AM 59.0 °F - 37.9 °F 46% 30.30 in 10.0 mi South 5.8 mph - N/A   Clear
11:53 AM 61.0 °F - 39.0 °F 44% 30.29 in 10.0 mi South 10.4 mph - N/A   Clear
12:53 PM 62.1 °F - 39.0 °F 43% 30.26 in 10.0 mi South 9.2 mph - N/A   Clear
1:53 PM 63.0 °F - 39.0 °F 41% 30.23 in 10.0 mi South 5.8 mph - N/A   Clear
2:53 PM 63.0 °F - 37.0 °F 38% 30.22 in 10.0 mi SSW 6.9 mph - N/A   Clear
3:53 PM 63.0 °F - 37.9 °F 40% 30.20 in 10.0 mi South 4.6 mph - N/A   Clear
4:53 PM 62.1 °F - 36.0 °F 38% 30.18 in 10.0 mi ESE 5.8 mph - N/A   Clear
5:53 PM 57.9 °F - 35.1 °F 42% 30.18 in 10.0 mi SE 4.6 mph - N/A   Clear
6:53 PM 54.0 °F - 39.0 °F 57% 30.18 in 10.0 mi West 3.5 mph - N/A   Clear
7:53 PM 51.1 °F - 37.9 °F 61% 30.18 in 10.0 mi WNW 5.8 mph - N/A   Clear
8:53 PM 48.9 °F - 37.9 °F 66% 30.19 in 9.0 mi West 3.5 mph - N/A   Clear
9:53 PM 48.0 °F - 37.9 °F 68% 30.19 in 10.0 mi Calm Calm - N/A   Clear
11:53 PM 43.0 °F 40.3 °F 36.0 °F 76% 30.17 in 10.0 mi NNW 4.6 mph - N/A   Clear